Погода в Лувуке

Индонезия     1°05′35″S   122°43′27″E
темп.,
°C
ветер,
м/с
пор.,
м/с
влажн.,
%
обл.,
%
осадки,
мм/ч
давл.,
гПа
погр.,
м
8 марта, пн
пн823:00+21зюз249097 2.7 1012126
02:00+21з128698 3.1 101096
05:00+21зюз1289100 0.1 1011109
08:00+22ююз2289100 0.1 1013194
11:00+22юз1189100 0.1 1012156
14:00+23ююв1285100 0.4 1009220
17:00+23св1187100 0.4 1009117
20:00+21сз1186100 0.4 101175
9 марта, вт
вт923:00+21сз2277100 0.0 101146
02:00+21сз227497 0.0 101057
05:00+22сз2278100 0.0 101059
08:00+25с016880 0.0 1011348
11:00+27юв226831 0.3 1011682
14:00+27всв128151 6.4 1008458
17:00+24с1288100 4.8 1008134
20:00+21сз228496 5.5 101054
10 марта, ср
ср1023:00+21сз238462 0.3 101247
02:00+21зсз128179 0.7 101083
05:00+20зюз3494100 3.1 1010164
08:00+21зсз1292100 7.3 101269
11:00+24ссз1279100 0.3 1011255
14:00+27юв116985 0.6 1008752
17:00+25вюв018669 2.4 1008192
20:00+23зсз118876 5.4 101078
11 марта, чт
чт1123:00+22сз228694 0.1 101141
02:00+20сз228380 0.1 100942
05:00+20сз227989 0.0 100938
08:00+24ююз127185 0.0 1012199
11:00+25ю337899 0.2 1010495
14:00+25ююз228597 3.0 1008473
17:00+24ююз119184 3.4 100890
20:00+22зсз118892 7.3 101065
12 марта, пт
пт1223:00+22сз118846 0.4 101143
02:00+22ссз228773 0.6 100943
05:00+21ссз128887 0.4 100945
08:00+25вюв007678 0.4 1011319
11:00+26юв217272 0.1 1010647
14:00+26юв217186 1.4 1008646
17:00+25юв117987 1.4 1008470
20:00+22ссз019293 4.3 101070